[[{"header":{"parameterUnit":"m.s-1","parameterCategory":1,"la1":30.2991,"la2":30.254,"lo1":-89.0895,"lo2":-89.0444,"dy":0.0017,"dx":0.0017,"nx":28,"ny":28,"refTime":"2024-02-09T09:00:00:Z","depth":0,"parameterNumber":2,"parameterNumberName":"U-component_of_WINDS"},"data":[0,0,0,0,0,0,0,0,0,0,0,0,0,0,0,0,0,0,0,0,0,0,0,0,0,0,0,0,0,0,0,0,0,0,0,0,0,0,0,0,0,0,0,0,0,0,0,0,0,0,0,0,0,0,0,0,0,0,-1.3714,-1.3713,0,-1.3616,-1.3615,-1.3614,-1.3518,-1.3517,-1.3515,-1.3514,-1.3415,-1.3413,-1.3412,0,0,0,0,0,0,0,0,0,0,0,0,0,-1.3815,-1.3814,-1.3714,-1.3713,-1.3711,-1.3617,-1.3615,-1.3614,-1.3518,-1.3517,-1.3515,-1.3514,-1.3415,-1.3413,-1.3412,0,0,0,0,0,0,0,0,0,0,0,0,0,-1.375,-1.3813,-1.3714,-1.3652,-1.3646,-1.3617,-1.3615,-1.3614,-1.3519,-1.3517,-1.3515,-1.3513,-1.3416,-1.3414,-1.3411,-1.3436,0,0,-1.3405,-1.3404,0,0,0,0,0,0,0,0,-1.3754,-1.3746,-1.3663,-1.3656,-1.3649,-1.3577,-1.3614,-1.3554,-1.3519,-1.3567,-1.3514,-1.3512,-1.347,-1.3464,-1.3449,-1.3431,-1.3427,-1.3405,-1.3403,-1.3402,-1.3402,0,0,0,0,0,0,0,-1.3758,-1.375,-1.3675,-1.3661,-1.3653,-1.3629,-1.3617,-1.3602,-1.353,-1.3563,-1.3555,-1.3545,-1.3466,-1.3452,-1.3446,-1.3425,-1.3405,-1.3403,-1.3401,-1.34,-1.3419,-1.3421,0,0,0,0,0,0,-1.3772,-1.3754,-1.3678,-1.3672,-1.3698,-1.3628,-1.3616,-1.3602,-1.353,-1.3518,-1.3547,-1.3541,-1.3457,-1.3449,-1.3443,-1.3464,-1.3402,-1.34,-1.3399,-1.3417,-1.3419,-1.3421,0,0,0,0,0,0,-1.3775,-1.3766,-1.3682,-1.3711,-1.3699,-1.3629,-1.3614,-1.3601,-1.3587,-1.3518,-1.3505,-1.3545,-1.3455,-1.3446,-1.3437,-1.3459,-1.3399,-1.3397,-1.3415,-1.3418,-1.342,-1.3509,0,0,0,0,0,0,-1.3778,-1.3768,-1.3777,-1.3712,-1.3697,-1.368,-1.3616,-1.3601,-1.3583,-1.3575,-1.3514,-1.3502,-1.3453,-1.3441,-1.3435,-1.3455,-1.3395,-1.3413,-1.3416,-1.3419,-1.3504,-1.3514,-1.3523,0,0,0,0,0,-1.3782,-1.3807,-1.3778,-1.377,-1.3708,-1.3681,-1.3673,-1.3616,-1.3586,-1.3593,-1.3549,-1.3504,-1.3458,-1.3441,-1.3434,-1.3453,-1.3411,-1.3415,-1.3419,-1.3499,-1.3512,-1.3523,0,0,0,0,0,0,-1.3877,-1.3797,-1.3765,-1.3769,-1.3733,-1.3665,-1.3674,-1.3632,-1.3603,-1.3597,-1.3527,-1.3514,-1.3513,-1.3482,-1.3465,-1.3471,-1.3428,-1.3431,-1.3492,-1.3503,-1.3513,-1.352,-1.3394,0,0,0,0,0,-1.3898,-1.3884,-1.3815,-1.3825,-1.3809,-1.3745,-1.3731,-1.369,-1.3649,-1.3634,-1.3589,-1.3551,-1.3527,-1.3514,-1.3489,-1.3499,-1.3483,-1.3508,-1.3518,-1.3527,-1.353,-1.353,-1.3539,-1.3435,-1.3435,-1.3434,0,0,-1.3942,-1.3897,-1.3892,-1.3843,-1.381,-1.3795,-1.3732,-1.372,-1.3709,-1.3632,-1.362,-1.3586,-1.3539,-1.354,-1.3538,-1.3514,-1.3555,-1.3532,-1.3539,-1.3537,-1.3535,-1.3545,-1.3554,-1.3437,-1.3437,-1.3436,0,0,-1.4014,-1.398,-1.3983,-1.3951,-1.3901,-1.3858,-1.3859,-1.3797,-1.3771,-1.3759,-1.37,-1.3685,-1.3647,-1.3615,-1.3594,-1.3652,-1.3608,-1.3646,-1.3697,-1.3698,-1.3706,-1.3713,-1.3731,-1.3739,-1.3649,-1.365,-1.365,0,-1.4075,-1.4051,-1.399,-1.3981,-1.396,-1.389,-1.3892,-1.3863,-1.3809,-1.3795,-1.377,-1.3719,-1.3683,-1.3673,-1.3687,-1.3673,-1.367,-1.3652,-1.371,-1.3716,-1.3722,-1.3739,-1.3746,-1.3654,-1.3654,-1.3653,-1.3653,0,-1.4127,-1.4112,-1.4121,-1.4068,-1.4049,-1.4046,-1.3983,-1.397,-1.3931,-1.389,-1.3877,-1.383,-1.3793,-1.3788,-1.375,-1.3773,-1.3759,-1.3723,-1.3678,-1.3738,-1.3752,-1.3758,-1.3661,-1.3659,-1.3658,-1.3657,0,0,-1.4257,-1.417,-1.4174,-1.4148,-1.4087,-1.4073,-1.4066,-1.403,-1.4019,-1.3983,-1.3974,-1.3943,-1.3908,-1.3884,-1.3841,-1.3842,-1.3888,-1.3805,-1.3803,-1.382,-1.3907,-1.3933,-1.3942,-1.3859,-1.386,-1.3861,-1.391,0,-1.4317,-1.43,-1.4244,-1.4243,-1.4227,-1.4159,-1.4152,-1.4113,-1.4075,-1.4054,-1.4011,-1.3989,-1.3946,-1.3931,-1.3929,-1.3883,-1.3904,-1.3879,-1.3848,-1.3848,-1.386,-1.395,-1.3978,-1.4027,-1.3915,-1.3916,-1.3917,0,-1.4386,-1.4353,-1.4351,-1.4289,-1.4279,-1.4275,-1.4235,-1.4217,-1.4171,-1.4143,-1.4115,-1.4067,-1.4054,-1.4013,-1.3992,-1.3976,-1.396,-1.3936,-1.3936,-1.393,-1.3885,-1.3944,-1.4041,-1.4048,-1.3926,-1.3925,-1.3924,0,-1.4478,-1.4434,-1.4426,-1.4406,-1.4334,-1.4332,-1.4301,-1.4253,-1.4234,-1.42,-1.4186,-1.4151,-1.4131,-1.4104,-1.4047,-1.4023,-1.4033,-1.3987,-1.4007,-1.4008,-1.4011,-1.4012,-1.4106,-1.4004,-1.4004,-1.4004,-1.4004,0,-1.455,-1.4551,-1.4466,-1.4461,-1.4459,-1.4394,-1.4393,-1.4356,-1.4314,-1.43,-1.4239,-1.4226,-1.4153,-1.4131,-1.4087,-1.4075,-1.4067,-1.4043,-1.403,-1.4047,-1.405,-1.4035,-1.4029,-1.4006,-1.4006,-1.4005,-1.4005,0,-1.4652,-1.4596,-1.4582,-1.4514,-1.4497,-1.4498,-1.4439,-1.4431,-1.4388,-1.4371,-1.4363,-1.4295,-1.4267,-1.4208,-1.4163,-1.4133,-1.4131,-1.4111,-1.4147,-1.4139,-1.4161,-1.4159,-1.4247,-1.4254,-1.4151,-1.4152,-1.4153,0,-1.4702,-1.47,-1.4632,-1.4618,-1.459,-1.4568,-1.4548,-1.4483,-1.4464,-1.441,-1.4408,-1.4375,-1.4344,-1.4302,-1.4248,-1.4213,-1.419,-1.4223,-1.4184,-1.42,-1.4187,-1.4188,-1.4186,-1.4232,-1.4233,-1.4234,-1.4235,0,-1.4794,-1.4765,-1.4739,-1.4702,-1.4679,-1.4647,-1.4611,-1.4603,-1.453,-1.4511,-1.4481,-1.4458,-1.4411,-1.4378,-1.4334,-1.4302,-1.4255,-1.4248,-1.425,-1.4266,-1.4286,-1.4273,-1.4168,-1.4246,-1.4245,-1.4244,-1.4243,-1.4243,-1.4869,-1.4864,-1.4814,-1.4786,-1.4752,-1.472,-1.4708,-1.4663,-1.4637,-1.4594,-1.4557,-1.453,-1.4481,-1.4418,-1.4388,-1.4364,-1.4342,-1.4346,-1.4347,-1.4348,-1.4354,-1.4291,-1.4356,-1.4356,-1.4356,-1.4355,-1.4355,0,-1.4957,-1.4921,-1.4896,-1.4847,-1.4824,-1.4783,-1.4741,-1.4724,-1.4701,-1.466,-1.4631,-1.4594,-1.4561,-1.4505,-1.4466,-1.4458,-1.4436,-1.445,-1.4449,-1.4442,-1.4377,-1.4378,-1.4468,-1.4468,-1.4468,-1.4468,-1.4468,-1.4468,-1.4999,-1.4987,-1.4953,-1.4923,-1.4886,-1.4859,-1.4838,-1.4807,-1.4773,-1.4736,-1.4708,-1.4671,-1.4623,-1.458,-1.4547,-1.4531,-1.4518,-1.4539,-1.4516,-1.4457,-1.4447,-1.4436,-1.4437,-1.4538,-1.4538,-1.4582,-1.4582,-1.4583]},{"header":{"parameterUnit":"m.s-1","parameterCategory":1,"la1":30.2991,"la2":30.254,"lo1":-89.0895,"lo2":-89.0444,"dy":0.0017,"dx":0.0017,"nx":28,"ny":28,"refTime":"2024-02-09T09:00:00:Z","depth":0,"parameterNumber":3,"parameterNumberName":"V-component_of_WINDS"},"data":[0,0,0,0,0,0,0,0,0,0,0,0,0,0,0,0,0,0,0,0,0,0,0,0,0,0,0,0,0,0,0,0,0,0,0,0,0,0,0,0,0,0,0,0,0,0,0,0,0,0,0,0,0,0,0,0,0,0,0.0916,0.0918,0,0.1155,0.1158,0.1161,0.1252,0.1252,0.1251,0.125,0.1514,0.1521,0.1529,0,0,0,0,0,0,0,0,0,0,0,0,0,0.056,0.0566,0.0916,0.0919,0.0922,0.1155,0.1158,0.1161,0.1253,0.1252,0.1251,0.125,0.1511,0.152,0.1529,0,0,0,0,0,0,0,0,0,0,0,0,0,0.0749,0.0568,0.0915,0.0995,0.1004,0.1154,0.1158,0.1162,0.1253,0.1252,0.1251,0.125,0.1508,0.1519,0.1531,0.1624,0,0,0.1566,0.1571,0,0,0,0,0,0,0,0,0.0738,0.0762,0.098,0.099,0.1,0.1172,0.1129,0.1318,0.1253,0.1159,0.125,0.1249,0.1402,0.1422,0.147,0.1637,0.1648,0.1567,0.1574,0.1579,0.1582,0,0,0,0,0,0,0,0.0725,0.0752,0.1011,0.0983,0.0996,0.1026,0.1052,0.1166,0.1285,0.1167,0.1174,0.12,0.1408,0.1459,0.1477,0.1652,0.1567,0.1577,0.1584,0.1589,0.1918,0.192,0,0,0,0,0,0,0.0696,0.0741,0.1003,0.1018,0.0863,0.1033,0.1062,0.1119,0.1283,0.1307,0.1201,0.1204,0.144,0.1464,0.1487,0.1613,0.1579,0.159,0.1596,0.1916,0.1918,0.192,0,0,0,0,0,0,0.0688,0.0718,0.0994,0.0882,0.0919,0.104,0.1104,0.1124,0.1175,0.1309,0.1333,0.123,0.144,0.1471,0.159,0.1623,0.1595,0.1605,0.1914,0.1917,0.1919,0.1861,0,0,0,0,0,0,0.0677,0.0715,0.0745,0.0881,0.0924,0.1085,0.1105,0.1129,0.1192,0.1198,0.1342,0.1365,0.1441,0.1573,0.1602,0.1638,0.1614,0.1912,0.1915,0.1918,0.1861,0.1861,0.1862,0,0,0,0,0,0.0664,0.0722,0.0746,0.0778,0.0964,0.1087,0.1112,0.1193,0.1194,0.1231,0.1319,0.1361,0.1614,0.1584,0.1618,0.1658,0.191,0.1914,0.1918,0.186,0.1861,0.1862,0,0,0,0,0,0,0.0591,0.074,0.077,0.0871,0.0965,0.1102,0.1149,0.1191,0.1291,0.1292,0.1395,0.1427,0.154,0.1612,0.1575,0.1763,0.1766,0.1777,0.1711,0.1713,0.1713,0.1695,0.1624,0,0,0,0,0,0.0585,0.0666,0.0795,0.0873,0.0918,0.1026,0.1082,0.1137,0.1241,0.1283,0.1379,0.1483,0.1588,0.1655,0.1757,0.1872,0.191,0.1918,0.1919,0.1918,0.1927,0.2002,0.2009,0.1934,0.1934,0.1934,0,0,0.0577,0.0669,0.0714,0.0861,0.094,0.1029,0.1058,0.1149,0.1219,0.1299,0.1416,0.1492,0.1617,0.1736,0.1794,0.1799,0.1957,0.1924,0.1922,0.1932,0.2007,0.2014,0.202,0.1937,0.1936,0.1936,0,0,0.0607,0.0681,0.0757,0.0836,0.0955,0.1027,0.1045,0.1178,0.1229,0.1348,0.1412,0.1501,0.1676,0.1765,0.1832,0.1905,0.1951,0.1937,0.1941,0.2012,0.2018,0.2024,0.2055,0.2065,0.1945,0.1945,0.1945,0,0.0582,0.0711,0.0792,0.0881,0.0947,0.102,0.1103,0.1178,0.1327,0.1375,0.1378,0.1604,0.1693,0.1838,0.1855,0.1907,0.1938,0.192,0.2009,0.2016,0.2023,0.2054,0.2065,0.1942,0.1943,0.1943,0.1943,0,0.0679,0.0768,0.0817,0.0954,0.1027,0.1111,0.1213,0.1279,0.133,0.1405,0.1532,0.1642,0.1771,0.181,0.1861,0.1965,0.1966,0.1988,0.1994,0.2026,0.2058,0.207,0.1939,0.194,0.1941,0.1941,0,0,0.0664,0.0848,0.0865,0.0931,0.1071,0.1146,0.124,0.1362,0.1419,0.1522,0.1608,0.1759,0.1782,0.1859,0.1923,0.1985,0.2044,0.2002,0.2007,0.2009,0.2174,0.2157,0.2169,0.2075,0.2078,0.208,0.2165,0,0.0714,0.0876,0.0955,0.1086,0.1175,0.125,0.1334,0.1434,0.1508,0.1601,0.1688,0.1794,0.1813,0.1862,0.1927,0.2022,0.2079,0.2017,0.2164,0.2168,0.2131,0.2184,0.2165,0.2239,0.2177,0.2179,0.2181,0,0.0792,0.0891,0.1029,0.1165,0.1206,0.1277,0.14,0.1485,0.1605,0.1656,0.1745,0.1808,0.192,0.1918,0.2078,0.2035,0.2102,0.2159,0.2164,0.2182,0.2176,0.2207,0.2264,0.2276,0.22,0.2198,0.2197,0,0.0772,0.0941,0.1047,0.1101,0.1261,0.1311,0.1382,0.1499,0.157,0.1681,0.1731,0.1854,0.1923,0.2023,0.2122,0.211,0.2275,0.228,0.2328,0.2325,0.2359,0.2355,0.243,0.2397,0.2397,0.2397,0.2397,0,0.0821,0.0904,0.104,0.1105,0.1204,0.13,0.1398,0.1476,0.1582,0.167,0.1746,0.183,0.1954,0.2056,0.2136,0.2261,0.2291,0.2341,0.2362,0.2335,0.2329,0.2381,0.2379,0.24,0.2399,0.2399,0.2398,0,0.0813,0.0907,0.1029,0.1171,0.121,0.1277,0.1404,0.1475,0.1556,0.1668,0.1701,0.183,0.1955,0.2064,0.223,0.2285,0.2415,0.2438,0.2372,0.2383,0.2426,0.2422,0.2538,0.2562,0.251,0.251,0.251,0,0.0838,0.0903,0.1053,0.1115,0.1183,0.1283,0.1356,0.1457,0.1532,0.1677,0.1734,0.1863,0.1972,0.2171,0.2285,0.2415,0.2445,0.2477,0.2465,0.2439,0.2451,0.2446,0.2457,0.2477,0.2477,0.2477,0.2477,0,0.0873,0.0918,0.1016,0.1134,0.1218,0.1317,0.1418,0.1467,0.159,0.1672,0.1798,0.1882,0.2053,0.2184,0.2328,0.2411,0.2468,0.248,0.2499,0.2473,0.2434,0.246,0.2376,0.2477,0.2477,0.2477,0.2477,0.2477,0.0886,0.095,0.1066,0.1176,0.1263,0.1358,0.1434,0.1525,0.1629,0.1771,0.1828,0.1959,0.2089,0.2287,0.2371,0.2482,0.2491,0.2517,0.2524,0.2529,0.2527,0.2415,0.2509,0.2509,0.2509,0.2509,0.2509,0,0.0928,0.1008,0.1108,0.1247,0.1336,0.1377,0.1494,0.1569,0.168,0.1793,0.1898,0.2049,0.2179,0.2306,0.2445,0.251,0.254,0.2543,0.2541,0.2561,0.2509,0.248,0.2517,0.2517,0.2517,0.2517,0.2517,0.2517,0.096,0.1072,0.1132,0.1293,0.1376,0.1499,0.1564,0.1656,0.1747,0.1909,0.2015,0.2095,0.2218,0.2367,0.2492,0.2527,0.2577,0.2574,0.2616,0.2565,0.2563,0.2561,0.2535,0.2583,0.2583,0.266,0.2661,0.2661]}]]